This is the latest recevied weather packets stored in our database for station/object N5CSU. If no packets are shown the sender has not sent any weather packets the latest 10 day(s).
| Time | Temp. | Humidity | Pressure | Rain* | Wind** | Luminosity | Snow |
|---|---|---|---|---|---|---|---|
| 1787866788 | 37.22° C | 39% | 1013.3 hPa | 0 mm | - | 14 W/m² | - |
| 1787866488 | 37.78° C | 40% | 1013.4 hPa | 0 mm | - | 16 W/m² | - |
| 1787866186 | 37.78° C | 40% | 1013.5 hPa | 0 mm | - | 19 W/m² | - |
| 1787865882 | 37.22° C | 41% | 1013.6 hPa | 0 mm | - | 18 W/m² | - |
| 1787865577 | 37.22° C | 40% | 1013.7 hPa | 0 mm | - | 18 W/m² | - |
| 1787865272 | 37.78° C | 43% | 1013.7 hPa | 0 mm | - | 22 W/m² | - |
| 1787864968 | 37.22° C | 43% | 1013.9 hPa | 0 mm | - | 22 W/m² | - |
| 1787864664 | 37.22° C | 43% | 1014 hPa | 0 mm | - | 21 W/m² | - |
| 1787864357 | 37.22° C | 42% | 1014 hPa | 0 mm | - | 23 W/m² | - |
| 1787864057 | 37.22° C | 41% | 1013.8 hPa | 0 mm | - | 22 W/m² | - |
| 1787863756 | 37.22° C | 42% | 1014 hPa | 0 mm | - | 28 W/m² | - |
| 1787863455 | 37.78° C | 43% | 1014 hPa | 0 mm | - | 29 W/m² | - |
| 1787863152 | 37.78° C | 41% | 1014.1 hPa | 0 mm | - | 27 W/m² | - |
| 1787862847 | 37.78° C | 40% | 1014 hPa | 0 mm | - | 34 W/m² | - |
| 1787862546 | 37.78° C | 41% | 1014.1 hPa | 0 mm | - | 29 W/m² | - |
| 1787862241 | 37.22° C | 42% | 1014.1 hPa | 0 mm | - | 27 W/m² | - |
| 1787861937 | 37.22° C | 41% | 1014.1 hPa | 0 mm | - | 26 W/m² | - |
| 1787861637 | 37.22° C | 37% | 1014.3 hPa | 0 mm | - | 33 W/m² | - |
| 1787861334 | 37.22° C | 39% | 1014.3 hPa | 0 mm | - | 78 W/m² | - |
| 1787861030 | 37.78° C | 38% | 1014.5 hPa | 0 mm | - | 21 W/m² | - |
| 1787860729 | 37.22° C | 38% | 1014.5 hPa | 0 mm | - | 23 W/m² | - |
| 1787860424 | 37.22° C | 40% | 1014.4 hPa | 0 mm | - | 21 W/m² | - |
| 1787860124 | 37.78° C | 38% | 1014.7 hPa | 0 mm | - | 25 W/m² | - |
| 1787859820 | 37.78° C | 40% | 1014.6 hPa | 0 mm | - | 23 W/m² | - |
| 1787859520 | 37.78° C | 42% | 1014.7 hPa | 0 mm | - | 24 W/m² | - |
* Rain latest hour (hover to see other rain measurements)
** Current wind speed in m/s (hover to see current wind gust speed)